Location: Cudham
(51.3000°N, 0.0667°E)
Time: 17:36:33
(UTC+00:00)

USA 229 DEB - Pass Details

Date: 22 April 2026
Orbit: 844 x 1364 km, 63.4° (Epoch: 10 January)

Event Time Altitude Azimuth Distance (km) Brightness Sun altitude
Rises 23:52:33 0° 315° (NW) 3,940 7.3 -26.6°
Reaches altitude 10° 23:55:06 10° 314° (NW) 3,049 6.6 -26.6°
Maximum altitude 00:02:30 78° 230° (SW) 1,277 3.9 -26.6°
Enters shadow 00:04:54 50° 155° (SSE) 1,590 4.2 -26.5°
